Regional Weather Roundup
Issued by NWS

Home | Current Version | Previous Version | Text Only | Print | Product List | Glossary Off
Versions: 1 2 3 4 5 6 7 8 9 10 11 12 13 14 15 16 17 18 19 20 21 22 23 24 25 26 27 28 29 30 31 32 33 34 35 36 37 38 39 40 41 42 43 44 45 46 47 48 49 50

341
ASUS45 KCYS 230710
RWRWY

WYOMING REGIONAL WEATHER ROUNDUP
NATIONAL WEATHER SERVICE CHEYENNE WY
100 AM MDT SUN APR 23 2017

NOTE:  "FAIR" INDICATES FEW OR NO CLOUDS BELOW 12,000 FEET
WITH NO SIGNIFICANT WEATHER AND/OR OBSTRUCTIONS TO VISIBILITY.

WYZ001-230800-
YELLOWSTONE NATIONAL PARK

CITY           SKY/WX    TMP DP  RH WIND       PRES   REMARKS
LK YELLOWSTONE   N/A     28  25  88 CALM      30.08F
W YELLOWSTONE  NOT AVBL

$$
WYZ002>013-054>058-071-098>099-230800-
NORTHERN WYOMING

CITY           SKY/WX    TMP DP  RH WIND       PRES   REMARKS
JACKSON        FAIR      30  28  93 N9        30.04F WCI  22
CODY           FAIR      43  38  82 CALM      29.96F
GREYBULL       FAIR      43  37  79 W3        29.92F
WORLAND        FAIR      44  40  85 SW5       29.93S
SHERIDAN       FAIR      38  35  89 SW3       29.91F
BUFFALO        FAIR      42  32  67 W5        29.94F
GILLETTE       FAIR      47  34  60 S23       29.92F
HULETT         FAIR      52  30  43 S17G23    29.97F
NEWCASTLE      FAIR      46  28  49 SE15      30.03F

$$
WYZ014>020-022>026-101>103-230800-
CENTRAL WYOMING

CITY           SKY/WX    TMP DP  RH WIND       PRES   REMARKS
BIG PINEY      FAIR      32  26  78 E6        30.08S WCI  26
PINEDALE       FAIR      32  23  69 NW6       30.09S WCI  26
DUBOIS         FAIR      34  21  60 NW13      30.03S WCI  25
LANDER         FAIR      46  30  53 W6        29.97F
RIVERTON       FAIR      46  33  60 NW10      29.98F
CASPER         FAIR      42  35  76 W9        30.00F
DOUGLAS        FAIR      41  31  67 SE10      30.02F

$$
WYZ021-027>030-104>119-230800-
SOUTHERN WYOMING

CITY           SKY/WX    TMP DP  RH WIND       PRES   REMARKS
EVANSTON       FAIR      38  25  59 S10       30.06F WCI  31
KEMMERER         N/A     36  28  75 N3        30.08F
FORT BRIDGER   FAIR      38  27  62 S9        30.09F WCI  32
ROCK SPRINGS   FAIR      41  22  46 CALM      30.07F
DIXON            N/A     34  25  70 CALM      30.16R
RAWLINS        FAIR      36  20  52 S3        30.08F
SARATOGA       FAIR      36  21  55 S13       30.10S WCI  27
LARAMIE        FAIR      35  26  69 S14       30.09F WCI  26
CHEYENNE       FAIR      38  29  70 S14       30.11F WCI  30
TORRINGTON     FAIR      44  31  60 SE9       30.07F
PINE BLUFFS    FAIR      39  30  70 S12G20    30.13F WCI  32

$$




USA.gov is the U.S. government's official web portal to all federal, state and local government web resources and services.